Retour au catalogue

CZ-6A DEB

ActifSSO
NORAD 54551·DEBRIS·🇨🇳 China

Lancé Nov 11, 2022 depuis Taiyuan Satellite Launch Center

Loading…

Prochains Passages (prochaines 24 heures)

TLE

FraisSource: Space-Track

Époque: Sep 14, 2026, 09:46 UTC

1 54551U 22151LB  26257.40758141  .00000379  00000-0  27435-3 0  9996
2 54551  98.8816 228.8842 0106181 168.1246 192.2459 13.99641475195737

Suivez CZ-6A DEB en temps réel avec AllMySat

Download on the App Store